Hourly Data Report for April 06, 2021

KENORA A
ONTARIO
Current Station Operator: NAVCAN

49°47'18.000" N
94°21'47.000" W
409.70 m
6034076
71850
YQK

Download Data

Hourly Data (April 2021)
Hourly Data Report for April 6, 2021
TIME
LST
Temp Definition
°C
Dew Point Definition
°C
Rel Hum Definition
%
Precip. Amount Definition
mm

Wind Dir Definition
10's deg

Wind Spd Definition
km/h
Visibility Definition
km
Stn Press Definition
kPa
Hmdx Definition


Wind Chill Definition


Weather Definition


00:00 4.0 -1.4 68   35 14 32.2 96.07     Mainly Clear
01:00 2.6 -1.6 74   35 16 32.2 96.12     LegendNANA
02:00 1.6 -2.3 75   35 17 32.2 96.18     LegendNANA
03:00 0.7 -2.6 79   35 13 32.2 96.26     Mainly Clear
04:00 0.1 -2.8 81   35 10 32.2 96.32     LegendNANA
05:00 -1.0 -3.1 86   36 7 32.2 96.38   -4 LegendNANA
06:00 -2.2 -4.2 86   23 5 32.2 96.50   -4 Mainly Clear
07:00 0.6 -2.6 79   31 8 32.2 96.56     LegendNANA
08:00 1.9 -2.8 71   33 12 32.2 96.63     LegendNANA
09:00 3.9 -3.1 60   34 10 32.2 96.68     Mainly Clear
10:00 6.1 -3.7 50   31 14 32.2 96.64     LegendNANA
11:00 7.3 -3.8 45   30 5 32.2 96.61     LegendNANA
12:00 8.3 -4.5 40   34 11 32.2 96.61     Mainly Clear
13:00 10.4 -4.7 34   36 17 32.2 96.55     LegendNANA
14:00 10.3 -4.7 34   32 19 32.2 96.55     LegendNANA
15:00 11.2 -4.6 33   33 14 32.2 96.54     Mainly Clear
16:00 11.4 -5.3 30   33 16 32.2 96.52     LegendNANA
17:00 11.7 -6.2 28   6 12 32.2 96.58     LegendNANA
18:00 10.4 -5.9 31   3 10 32.2 96.62     Mostly Cloudy
19:00 8.7 -5.6 36   2 4 32.2 96.62     LegendNANA
20:00 7.7 -5.8 38   1 9 32.2 96.68     LegendNANA
21:00 6.4 -6.0 41   2 8 32.2 96.70     Mainly Clear
22:00 5.4 -6.1 43   2 8 32.2 96.69     LegendNANA
23:00 4.7 -6.0 46   2 8 32.2 96.71     LegendNANA

Notes on Data Quality.

Legend

  • E = Estimated
  • M = Missing
  • NA = Not Available*
  • [empty] = Indicates an unobserved value
Date modified: